Wetbulb
52.79 52.85 52.91 53.33 53.25 53.28 53.59 53.82 53.90 53.89 53.88 54.23 54.49 54.60 54.78 54.78 54.11 51.22 46.83 49.64 51.64 55.22 54.07 51.41 50.77 49.63 49.55 45.12 45.97 47.80 38.50 36.22 38.45 39.50 41.61 47.46 48.79 53.54 56.26 54.57 56.89 60.35 60.46 63.52 64.33
52.31 52.26 52.61 52.84 52.70 52.88 53.19 53.60 53.78 53.74 53.81 54.13 54.33 54.29 54.59 54.09 49.60 47.10 50.85 52.36 54.46 55.02 51.10 47.95 45.57 46.93 44.83 43.43 43.55 40.83 36.73 37.52 42.26 42.64 41.41 44.39 47.12 51.64 51.67 52.41 53.75 58.71 61.94 63.83 63.53
51.76 51.91 52.31 52.40 52.32 52.87 53.19 53.43 53.54 53.51 53.79 54.07 54.12 53.86 54.17 52.66 44.72 45.41 51.69 52.90 54.06 54.08 51.67 49.97 47.72 45.31 41.75 43.80 42.74 40.81 35.74 39.97 40.73 41.50 41.91 41.82 46.79 51.30 49.36 49.38 52.94 53.69 59.62 61.50 61.76
51.45 51.92 51.93 52.07 52.34 52.70 53.06 53.33 53.31 53.37 53.97 54.03 53.72 53.48 53.86 49.95 37.48 48.27 52.52 52.61 53.09 51.83 49.87 46.92 44.24 40.08 37.77 37.10 42.06 36.81 40.13 40.30 41.12 41.64 40.97 39.46 42.94 46.73 49.94 52.05 55.63 57.50 60.11 60.57 60.53
51.61 51.76 51.87 51.86 52.00 52.30 52.71 52.99 53.13 53.43 53.85 53.53 52.99 52.97 50.97 44.99 43.67 50.87 51.87 52.76 52.13 50.51 47.34 44.85 41.39 39.75 36.02 38.10 38.91 36.28 39.16 40.36 40.45 40.05 40.16 40.71 38.90 41.27 47.61 53.27 55.20 57.95 60.98 59.17 59.98
51.46 51.49 51.62 51.67 51.70 52.01 52.40 52.83 53.07 53.50 52.94 52.26 52.01 52.36 47.95 40.76 50.09 51.95 51.27 51.25 51.15 49.96 47.68 45.28 42.09 41.95 38.17 37.13 37.24 39.70 39.10 38.76 40.01 38.77 40.32 38.19 38.83 40.44 46.14 52.45 53.36 56.70 57.55 59.07 59.30
51.03 51.25 51.39 51.54 51.58 51.94 52.31 52.64 53.01 52.52 51.63 51.79 52.44 51.41 46.50 43.63 50.93 51.78 51.58 50.86 51.62 50.17 46.56 47.69 46.37 40.61 40.30 37.13 41.49 39.43 34.74 37.77 38.62 38.69 37.71 40.03 37.02 38.25 44.78 51.29 51.81 54.80 56.58 57.59 58.64
50.99 51.01 51.17 51.47 51.53 51.88 52.26 52.49 52.29 50.79 50.92 51.64 53.33 50.11 43.45 50.42 51.85 50.18 51.24 50.96 52.35 51.36 49.16 49.38 48.09 43.18 39.62 41.58 38.67 35.35 35.81 30.46 38.30 37.88 38.46 38.98 33.71 41.02 46.39 49.60 48.81 52.83 52.77 52.92 53.51
50.60 50.76 51.11 51.24 51.32 51.56 51.87 51.97 49.55 50.02 51.00 53.02 50.47 46.89 41.88 50.96 46.63 48.96 50.86 48.42 49.92 49.32 49.04 48.81 46.58 41.66 40.63 35.77 32.03 33.35 28.80 30.96 33.64 38.34 37.37 38.06 34.47 41.98 48.99 49.01 49.84 51.43 51.67 51.55 52.16
50.44 50.74 50.98 50.89 51.00 51.39 51.74 48.53 47.14 49.63 51.54 50.74 47.37 43.73 45.25 41.60 45.85 47.27 51.22 49.65 47.58 47.01 45.18 43.89 42.31 38.42 37.71 35.10 26.30 28.47 29.14 32.46 32.07 36.00 36.92 36.34 35.49 42.35 48.21 49.56 49.92 50.38 51.18 51.30 51.26
50.28 50.58 50.67 50.39 51.06 51.61 47.76 45.43 41.36 40.51 43.73 39.03 39.35 39.91 42.51 45.12 48.67 48.06 48.97 47.97 47.93 46.15 39.83 41.93 37.06 32.69 34.28 36.04 34.16 32.07 31.68 31.86 34.54 38.22 35.17 35.54 35.89 38.68 42.97 48.48 47.90 48.98 49.92 50.21 50.76
49.93 50.40 50.05 50.27 50.69 48.99 47.60 41.88 40.88 41.75 36.62 40.42 39.87 40.50 42.35 43.78 41.37 45.88 48.80 43.75 43.30 39.86 42.41 39.86 35.37 38.12 38.52 39.25 37.67 34.16 32.74 32.07 35.14 35.60 35.00 32.60 33.51 40.45 44.09 43.89 46.62 47.38 48.76 50.22 50.73
49.65 49.91 49.77 49.94 49.50 47.48 44.27 42.48 46.67 45.16 38.03 36.55 37.98 39.07 40.47 42.42 41.22 41.88 44.72 43.84 40.46 39.55 38.97 37.24 38.18 39.19 38.32 39.84 37.23 38.02 35.33 35.76 33.82 33.45 35.77 35.68 31.48 32.80 37.17 39.58 40.82 42.90 45.92 46.50 47.37
49.66 49.40 49.47 49.21 45.77 44.89 41.83 45.47 47.20 45.68 35.80 32.03 36.44 39.57 41.86 41.93 39.79 44.15 45.01 42.09 41.41 36.92 38.46 38.59 41.73 40.49 40.69 38.89 38.42 36.11 40.17 39.75 37.22 34.90 28.50 38.20 24.39 31.81 35.42 36.93 39.61 41.33 42.90 43.94 45.18
49.32 49.07 48.71 47.61 45.13 41.62 42.99 46.56 46.90 42.49 29.64 32.50 35.51 42.92 42.33 39.25 39.34 41.33 44.83 42.92 37.78 37.20 39.40 35.48 36.68 37.51 38.30 37.18 38.85 38.30 41.75 39.80 38.46 34.44 32.42 33.32 28.39 30.84 35.76 34.96 38.40 41.46 44.34 43.96 44.11
48.87 48.37 47.14 45.88 45.66 44.28 46.46 45.14 42.18 34.03 28.78 29.63 34.60 34.98 37.14 38.59 38.27 41.08 41.85 43.95 41.52 38.25 39.70 37.76 41.09 39.33 38.23 40.16 40.01 41.98 41.59 41.09 40.29 38.05 27.16 30.72 31.49 28.36 31.84 34.60 37.72 40.82 42.32 42.71 43.13
48.54 48.31 45.85 45.19 41.49 46.27 45.49 41.87 32.70 30.88 28.62 30.89 30.56 33.71 34.05 33.96 35.53 36.50 36.79 35.35 33.82 33.25 32.06 36.36 37.27 40.07 40.18 39.17 42.79 39.86 37.91 32.89 30.68 28.36 23.28 33.14 28.76 29.72 35.66 37.98 38.70 39.72 41.46 41.68 42.69
48.43 46.93 44.58 44.88 46.77 45.07 43.16 35.58 29.13 26.95 28.48 29.62 30.71 32.43 31.36 32.58 33.74 34.53 34.73 34.18 36.14 34.58 33.15 30.77 30.82 35.83 38.92 36.09 33.96 36.06 34.78 30.87 24.64 25.45 26.64 33.05 25.68 29.16 37.98 40.49 41.44 42.12 42.66 42.94 42.02
48.15 46.75 45.87 44.67 44.82 44.48 38.34 30.93 32.31 32.77 29.47 29.05 29.81 29.22 30.09 31.62 31.53 33.31 31.97 32.17 33.71 34.73 31.26 30.26 30.52 38.38 37.70 38.36 37.72 35.86 32.86 34.93 29.90 27.38 27.78 28.84 31.86 36.77 38.85 38.90 40.05 40.71 41.40 41.12 41.90
44.19 43.03 42.55 43.84 43.12 41.21 33.91 30.90 31.57 27.83 30.93 31.09 28.78 28.35 29.10 29.15 30.14 31.22 30.95 32.07 31.83 34.50 36.27 32.04 29.23 34.64 37.32 40.10 39.63 36.57 37.24 31.94 33.51 24.86 21.08 26.53 28.33 29.29 34.24 36.08 38.72 38.63 39.11 39.90 40.52
42.26 37.55 40.49 42.32 40.80 37.62 31.66 32.47 26.51 28.71 31.72 29.27 28.96 26.43 28.98 28.49 28.66 29.12 29.47 31.39 32.65 33.61 36.44 34.71 32.97 33.50 36.94 33.45 31.79 35.12 34.45 33.74 33.29 30.65 25.29 22.38 27.87 36.54 36.07 37.38 37.84 38.34 38.76 39.21 39.79
40.76 31.94 39.73 40.75 33.15 29.20 31.50 26.36 28.85 29.15 31.88 30.77 31.47 30.56 29.85 29.39 28.35 29.01 29.13 31.24 33.60 33.12 32.25 35.02 31.88 30.06 31.00 36.54 37.45 35.85 34.30 34.12 30.04 26.34 29.58 29.08 28.02 38.46 38.62 38.45 39.10 38.10 38.02 39.32 39.88
34.18 35.30 40.15 38.56 29.75 28.76 25.28 25.31 28.40 28.86 30.22 29.89 29.32 31.49 31.93 29.74 26.33 29.61 29.69 32.69 33.43 33.05 33.26 34.90 31.04 28.92 28.99 32.34 35.23 33.14 34.80 35.24 33.64 32.80 27.54 26.92 28.08 38.59 38.34 37.80 38.17 37.59 37.71 38.08 38.63
35.62 30.60 34.44 36.36 33.01 32.20 26.96 27.44 26.79 31.89 31.16 32.01 30.83 32.13 29.67 26.85 26.48 27.90 28.78 31.46 32.88 32.50 33.25 34.75 30.81 28.33 27.80 28.25 29.89 29.92 33.11 34.63 33.60 30.54 29.41 29.72 30.34 34.43 36.21 36.14 36.80 36.80 37.61 37.72 37.88
33.85 32.69 33.20 27.35 29.64 29.34 30.77 29.09 27.07 25.99 30.82 32.56 28.93 30.24 29.16 24.75 25.65 24.98 27.91 29.57 31.87 31.08 32.25 32.26 28.24 27.23 28.69 28.00 28.03 29.35 30.64 32.89 31.85 33.16 29.50 31.48 31.44 35.14 36.78 36.89 36.78 37.26 37.47 36.94 36.79
30.60 31.82 29.63 31.57 32.10 29.87 29.01 26.53 27.41 28.37 28.70 27.52 27.19 30.41 31.01 27.20 29.27 25.51 28.12 29.19 29.76 29.87 29.84 29.65 26.60 24.22 23.61 26.31 25.05 23.64 29.02 31.26 32.20 33.73 33.31 33.49 32.39 39.40 38.42 36.98 36.10 35.95 36.07 35.68 36.11
39.28 36.21 36.24 30.72 30.08 29.33 30.44 29.81 28.60 31.29 31.38 32.88 31.13 30.86 28.92 29.95 31.96 33.25 33.26 32.85 32.01 28.52 26.49 26.28 23.32 23.16 23.33 18.18 19.36 19.95 22.87 29.12 31.68 34.40 35.03 30.46 35.80 37.65 34.13 34.97 34.89 34.80 35.50 35.25 35.93
MSLP
1023.31 1023.24 1023.04 1022.84 1022.64 1022.37 1022.14 1021.90 1021.65 1021.39 1021.09 1020.81 1020.49 1020.21 1019.94 1019.64 1019.07 1018.32 1017.94 1018.67 1018.53 1018.39 1018.14 1017.09 1016.37 1016.15 1015.59 1014.94 1014.64 1014.02 1012.47 1010.00 1008.54 1007.53 1006.70 1006.30 1005.49 1005.78 1005.44 1005.20 1004.75 1005.83 1006.41 1007.36 1008.58
1023.35 1023.20 1023.05 1022.84 1022.72 1022.52 1022.16 1021.90 1021.65 1021.38 1021.07 1020.74 1020.47 1020.07 1019.79 1019.52 1018.78 1017.88 1018.49 1018.54 1018.62 1018.42 1017.95 1017.23 1016.90 1016.58 1015.65 1015.17 1014.61 1014.13 1012.34 1010.58 1009.56 1008.65 1008.00 1007.38 1006.37 1006.48 1006.72 1005.62 1005.54 1005.81 1007.62 1008.55 1009.06
1023.32 1023.16 1023.00 1022.92 1022.66 1022.41 1022.11 1021.87 1021.64 1021.27 1020.96 1020.65 1020.34 1019.95 1019.78 1019.51 1018.42 1017.94 1018.47 1018.45 1018.41 1018.28 1017.86 1017.70 1017.44 1017.10 1016.26 1015.69 1015.02 1014.31 1013.17 1012.11 1011.00 1010.39 1010.51 1009.93 1008.58 1008.11 1007.92 1006.94 1006.15 1005.92 1007.38 1009.17 1009.55
1023.35 1023.23 1023.00 1022.85 1022.61 1022.27 1022.01 1021.70 1021.48 1021.15 1020.81 1020.53 1020.19 1019.77 1019.60 1019.16 1018.36 1018.16 1018.45 1018.41 1018.36 1018.24 1017.80 1017.68 1017.56 1017.68 1017.49 1016.43 1015.51 1014.81 1014.22 1013.51 1012.64 1012.20 1012.16 1011.41 1010.26 1009.63 1008.81 1008.01 1007.81 1006.76 1005.93 1008.90 1009.70
1023.32 1023.28 1023.07 1022.85 1022.52 1022.17 1021.88 1021.53 1021.27 1020.92 1020.58 1020.27 1020.00 1019.74 1019.36 1018.48 1018.05 1018.02 1018.27 1018.06 1017.92 1017.68 1017.61 1017.60 1017.83 1017.86 1017.80 1017.05 1016.14 1015.25 1014.71 1014.32 1013.93 1013.83 1013.06 1012.17 1011.07 1010.06 1009.20 1008.76 1008.81 1008.15 1007.71 1009.15 1009.93
1023.22 1023.19 1023.13 1022.83 1022.42 1022.10 1021.77 1021.44 1021.09 1020.70 1020.30 1019.96 1019.69 1019.69 1019.09 1018.14 1018.21 1018.05 1017.97 1017.98 1017.79 1017.67 1017.58 1017.54 1017.79 1018.29 1018.25 1017.91 1016.73 1015.58 1015.08 1014.52 1014.01 1014.12 1013.24 1012.45 1011.34 1010.51 1009.51 1009.36 1009.48 1008.76 1008.73 1009.96 1010.40
1023.13 1023.14 1023.05 1022.75 1022.26 1021.90 1021.61 1021.15 1020.81 1020.48 1020.16 1019.92 1019.62 1019.46 1018.88 1018.24 1018.04 1017.89 1017.59 1017.79 1017.94 1018.05 1017.77 1017.33 1018.14 1018.91 1018.43 1017.17 1016.41 1015.91 1015.25 1014.19 1013.45 1013.53 1013.12 1012.60 1011.37 1010.17 1009.81 1010.21 1010.20 1010.27 1010.16 1010.84 1010.97
1023.07 1023.03 1022.94 1022.60 1022.12 1021.73 1021.36 1020.94 1020.57 1020.24 1019.98 1019.85 1019.73 1019.19 1018.08 1017.90 1017.89 1017.57 1017.51 1017.53 1017.77 1018.09 1018.03 1017.59 1018.19 1018.48 1018.33 1017.37 1016.79 1015.85 1015.31 1013.77 1012.00 1012.38 1012.61 1012.83 1010.61 1010.12 1010.23 1010.68 1010.81 1011.26 1011.71 1011.93 1012.06
1023.02 1022.90 1022.77 1022.40 1022.00 1021.66 1021.11 1020.67 1020.39 1020.10 1019.80 1019.80 1019.75 1019.12 1017.82 1017.76 1017.69 1017.58 1017.59 1017.72 1017.79 1017.70 1017.90 1017.61 1017.78 1017.15 1016.89 1016.82 1016.57 1015.66 1014.76 1013.45 1012.05 1011.82 1012.44 1012.87 1012.00 1011.32 1010.80 1010.97 1011.67 1011.85 1012.16 1012.68 1012.68
1022.86 1022.75 1022.57 1022.25 1021.85 1021.48 1020.89 1020.41 1020.32 1020.19 1019.86 1019.62 1019.43 1019.40 1018.09 1018.02 1017.98 1017.92 1017.50 1017.98 1017.78 1016.96 1017.13 1016.90 1016.94 1016.75 1016.01 1016.30 1016.19 1015.67 1015.00 1014.02 1013.37 1012.69 1013.02 1013.58 1013.43 1012.75 1011.76 1011.51 1010.89 1011.95 1012.67 1012.95 1013.26
1022.68 1022.60 1022.48 1022.18 1021.83 1021.26 1020.81 1020.35 1020.54 1020.22 1019.48 1019.81 1019.70 1019.27 1018.79 1018.55 1017.89 1017.63 1017.50 1017.68 1017.31 1016.26 1016.05 1016.87 1016.67 1016.10 1016.04 1015.79 1015.68 1015.20 1014.63 1014.41 1014.45 1014.27 1015.09 1015.22 1014.84 1014.21 1013.50 1012.70 1011.80 1012.16 1012.80 1013.25 1013.75
1022.59 1022.59 1022.42 1022.20 1021.80 1021.42 1020.91 1020.77 1021.69 1022.06 1020.62 1020.17 1019.94 1019.77 1019.55 1019.44 1018.15 1017.47 1017.68 1017.33 1016.69 1015.78 1015.68 1016.23 1016.09 1015.56 1015.60 1014.83 1014.29 1014.10 1014.14 1014.42 1014.92 1015.25 1015.58 1015.90 1015.49 1015.58 1013.67 1014.22 1013.68 1013.63 1013.82 1013.82 1014.07
1022.54 1022.62 1022.54 1022.25 1022.01 1021.52 1021.52 1022.13 1022.25 1022.07 1020.96 1020.15 1019.92 1019.80 1019.67 1019.59 1018.51 1017.82 1018.02 1017.54 1016.78 1015.63 1015.94 1016.08 1016.04 1015.37 1014.88 1013.80 1013.41 1012.82 1012.88 1013.24 1013.97 1015.14 1015.31 1014.24 1014.42 1016.18 1016.51 1014.68 1014.99 1014.89 1014.72 1014.79 1015.00
1022.67 1022.63 1022.60 1022.38 1022.39 1022.08 1022.11 1022.62 1022.40 1022.08 1021.36 1020.34 1019.64 1019.90 1019.62 1019.35 1018.60 1018.44 1018.27 1018.55 1016.62 1016.21 1015.73 1015.92 1015.75 1014.68 1013.65 1013.30 1013.40 1012.61 1012.65 1012.14 1012.91 1013.52 1013.62 1013.02 1015.85 1015.89 1015.15 1015.02 1014.75 1015.00 1015.34 1015.71 1015.97
1022.71 1022.61 1022.70 1022.65 1022.31 1022.22 1022.94 1022.78 1022.55 1022.17 1021.73 1020.99 1019.93 1019.98 1019.58 1019.08 1019.32 1018.09 1018.29 1018.09 1017.48 1016.78 1015.56 1016.39 1016.10 1015.27 1013.92 1013.89 1013.48 1012.40 1012.07 1011.76 1011.68 1012.52 1013.26 1013.05 1014.46 1016.91 1016.60 1015.95 1015.72 1015.74 1016.03 1016.85 1016.97
1022.71 1022.72 1022.68 1022.61 1022.49 1023.08 1022.99 1022.84 1022.68 1022.20 1021.36 1021.02 1020.40 1020.10 1019.45 1019.18 1019.12 1018.50 1017.88 1018.07 1018.29 1017.28 1016.12 1015.99 1016.36 1016.22 1015.30 1013.83 1013.29 1011.84 1011.05 1010.62 1010.77 1011.21 1012.68 1014.36 1014.13 1016.88 1016.78 1017.11 1016.75 1016.78 1017.09 1017.72 1017.65
1022.55 1022.76 1022.61 1022.68 1023.04 1023.24 1023.08 1022.60 1022.59 1021.99 1022.18 1021.51 1020.96 1020.73 1020.12 1019.81 1019.38 1019.29 1018.78 1018.66 1018.80 1018.19 1017.23 1016.34 1016.17 1016.18 1015.99 1013.91 1012.44 1011.97 1011.03 1010.52 1011.05 1012.14 1014.45 1015.16 1016.10 1018.03 1018.22 1017.93 1017.78 1017.66 1017.85 1018.30 1018.34
1022.26 1022.82 1023.22 1023.15 1023.25 1023.25 1022.94 1022.43 1022.59 1022.10 1021.87 1021.82 1021.64 1021.17 1020.70 1020.71 1020.30 1020.08 1019.58 1019.47 1019.48 1019.29 1018.28 1017.20 1016.62 1016.69 1016.66 1016.23 1015.17 1013.87 1013.31 1012.59 1012.69 1013.24 1014.34 1015.25 1016.77 1018.36 1018.30 1018.29 1018.19 1018.40 1018.62 1018.73 1018.94
1022.43 1022.53 1022.91 1023.54 1023.53 1023.31 1022.74 1023.09 1022.52 1022.42 1022.16 1021.91 1022.24 1021.54 1021.48 1021.38 1021.33 1020.60 1020.54 1020.81 1020.67 1020.32 1019.78 1018.63 1017.80 1017.35 1017.30 1017.20 1016.61 1014.65 1014.08 1014.93 1014.46 1015.13 1014.99 1016.52 1017.77 1018.05 1018.28 1018.42 1018.58 1018.70 1018.76 1019.01 1019.12
1021.96 1022.39 1023.10 1023.89 1023.70 1023.26 1023.11 1023.12 1023.21 1023.18 1022.79 1022.57 1022.35 1022.36 1021.92 1021.94 1021.84 1021.44 1021.02 1021.63 1021.59 1021.14 1020.88 1020.06 1018.83 1018.24 1017.75 1017.19 1017.09 1016.19 1015.89 1015.16 1014.79 1015.02 1015.64 1016.73 1017.07 1017.61 1018.34 1018.70 1019.02 1019.27 1019.52 1019.60 1019.52
1021.86 1022.49 1023.79 1023.95 1023.94 1023.47 1023.67 1023.75 1023.70 1023.84 1023.52 1023.28 1022.90 1022.67 1022.39 1022.44 1022.55 1022.38 1021.65 1022.05 1022.08 1021.70 1021.31 1020.81 1019.68 1018.92 1018.11 1018.61 1018.63 1017.26 1016.10 1015.79 1015.75 1015.79 1015.68 1016.52 1017.24 1018.32 1018.91 1019.33 1019.54 1019.97 1020.20 1020.24 1020.32
1021.95 1022.97 1023.97 1023.99 1024.08 1024.24 1024.21 1024.31 1024.41 1024.04 1023.96 1023.73 1023.57 1022.97 1022.61 1022.76 1022.84 1022.90 1022.13 1022.10 1022.57 1022.46 1021.59 1021.48 1020.93 1019.33 1019.07 1019.18 1019.37 1019.15 1018.14 1017.06 1016.05 1016.35 1016.23 1016.40 1017.96 1018.95 1019.45 1019.87 1020.03 1020.41 1020.68 1020.71 1020.84
1022.02 1023.09 1023.86 1023.84 1023.83 1024.02 1024.66 1024.74 1024.72 1024.18 1023.85 1023.84 1023.52 1023.24 1023.11 1022.69 1023.16 1023.12 1022.87 1022.95 1022.91 1022.72 1022.23 1022.02 1021.53 1020.48 1019.89 1019.73 1019.51 1019.26 1018.67 1018.07 1017.29 1016.64 1016.45 1016.65 1017.94 1019.17 1019.85 1020.19 1020.53 1020.65 1020.85 1021.00 1021.08
1021.78 1022.99 1023.69 1023.59 1023.48 1023.32 1023.76 1023.88 1024.19 1024.00 1023.65 1023.42 1023.30 1023.22 1023.32 1023.20 1023.54 1023.44 1022.97 1023.22 1023.28 1023.23 1023.27 1022.88 1022.37 1021.60 1020.59 1020.41 1020.46 1019.96 1019.24 1018.75 1018.01 1017.22 1016.74 1016.67 1017.81 1018.94 1019.65 1020.27 1020.74 1021.03 1021.26 1021.42 1021.61
1020.98 1021.39 1021.24 1022.54 1022.57 1022.55 1022.78 1022.75 1023.20 1023.53 1023.52 1023.26 1022.95 1022.89 1022.91 1022.97 1023.32 1023.38 1023.15 1023.23 1023.56 1023.66 1023.67 1023.49 1023.21 1023.11 1022.25 1021.98 1021.44 1020.86 1020.18 1019.43 1018.69 1017.88 1017.31 1016.98 1017.53 1018.41 1019.40 1020.26 1021.00 1021.41 1021.64 1021.87 1022.09
1019.90 1020.57 1021.48 1021.31 1021.17 1021.63 1022.04 1021.76 1021.75 1022.28 1022.55 1022.51 1022.22 1022.01 1022.49 1022.27 1022.39 1022.54 1022.47 1022.88 1023.27 1023.86 1023.98 1024.25 1024.21 1024.35 1023.61 1023.05 1022.42 1021.63 1020.63 1019.86 1019.32 1018.63 1018.10 1017.82 1017.79 1018.54 1019.69 1020.54 1021.28 1021.80 1022.10 1022.28 1022.53
1018.44 1019.02 1018.83 1020.15 1020.53 1020.59 1019.75 1019.94 1020.18 1020.81 1021.35 1021.13 1021.26 1021.59 1022.24 1021.95 1022.51 1022.73 1022.88 1022.68 1023.42 1023.81 1024.48 1024.69 1024.72 1024.64 1024.24 1023.85 1023.02 1022.12 1020.41 1019.78 1019.24 1018.67 1018.28 1018.29 1018.20 1019.43 1020.40 1020.82 1021.41 1022.00 1022.43 1022.72 1022.90
Wind_Speed
6 7 8 9 10 10 11 11 12 12 12 13 13 13 13 13 14 7 8 5 5 7 12 13 9 9 11 7 8 7 9 16 25 26 24 21 17 5 19 21 15 9 6 8 17
6 7 8 9 10 11 11 12 12 13 13 13 13 13 13 12 6 5 4 3 7 8 12 11 12 13 8 6 5 10 12 23 22 21 17 19 23 16 19 18 19 12 5 12 16
5 7 8 9 10 11 12 13 13 13 13 13 12 13 12 9 4 7 5 7 9 12 10 11 10 10 9 8 9 13 17 21 20 13 14 19 10 13 9 15 17 21 15 12 15
6 7 8 10 11 12 13 13 14 14 14 13 12 12 11 5 3 6 5 7 9 11 9 7 5 6 6 7 8 14 16 19 19 17 11 18 16 14 12 14 15 22 17 17 17
5 7 9 10 12 13 14 14 15 15 14 14 12 8 7 4 4 6 5 9 9 5 6 6 5 5 3 7 9 13 17 18 15 16 16 18 18 17 13 14 13 16 14 16 15
5 8 10 12 13 14 15 15 15 15 15 9 5 3 4 1 2 8 9 8 6 8 6 2 3 4 4 7 11 8 12 13 13 16 17 15 17 15 12 10 13 11 9 12 12
6 9 11 13 14 15 16 16 16 16 9 5 3 3 4 5 4 8 8 5 5 6 7 6 5 2 3 9 9 14 16 17 17 17 14 10 15 20 16 8 8 4 3 5 7
7 9 11 13 15 16 16 17 16 11 7 4 5 2 2 2 6 6 9 4 2 2 3 4 3 2 3 8 8 15 12 15 14 16 10 9 11 16 13 8 5 6 6 9 10
7 9 11 13 15 17 18 17 10 6 1 6 4 3 2 1 6 9 7 6 4 1 2 2 4 5 4 4 7 4 9 10 6 13 9 11 4 5 10 9 11 10 10 8 10
7 9 11 13 15 17 18 11 2 3 3 3 3 4 1 6 7 8 8 4 4 5 3 4 5 7 3 3 7 10 7 5 2 3 10 10 12 11 13 9 10 13 10 9 10
7 8 11 13 16 14 10 2 4 4 1 4 4 3 6 11 2 4 7 7 7 6 9 4 7 11 16 6 8 12 8 6 3 8 3 4 9 12 14 11 10 13 11 9 11
6 8 10 12 12 12 5 3 3 2 2 0 2 4 3 6 5 6 12 5 3 7 12 2 11 11 15 15 9 6 8 10 8 7 8 9 8 6 14 8 14 12 11 12 11
5 7 10 11 9 3 5 4 3 2 5 3 1 3 3 6 5 8 11 6 3 7 8 8 10 8 9 14 16 14 12 7 5 7 6 6 24 19 6 17 10 12 10 13 13
4 6 9 12 4 3 3 3 2 2 1 2 1 2 3 4 3 4 6 3 2 5 5 3 11 11 11 14 13 11 14 15 13 5 10 16 7 19 21 19 17 13 12 11 12
3 4 5 9 3 2 4 2 1 3 3 3 2 4 5 3 8 4 2 5 6 4 4 5 11 15 11 8 14 5 9 7 13 16 8 19 8 16 15 18 18 16 15 11 10
2 2 2 2 0 2 2 1 3 2 4 1 3 5 3 4 3 8 5 1 3 4 4 5 0 7 8 13 6 13 8 2 1 6 10 18 8 17 15 17 16 15 14 11 11
4 3 1 1 2 3 1 3 2 2 1 1 2 4 2 5 4 7 6 10 6 4 6 3 9 3 10 11 5 20 12 3 5 7 7 11 13 10 13 13 13 14 14 12 10
7 4 4 4 2 1 3 1 3 2 3 1 2 2 1 6 3 5 3 3 8 6 2 5 3 10 14 6 6 6 8 5 4 3 5 11 8 6 9 11 12 13 13 13 12
12 3 2 4 3 3 0 0 2 1 3 5 2 2 0 1 3 3 4 4 5 8 5 1 4 3 2 7 8 8 6 5 4 4 5 5 7 8 7 11 12 13 14 14 14
4 3 3 5 3 2 3 3 1 1 1 1 4 2 2 1 2 2 1 2 3 3 6 1 1 3 4 5 4 5 5 0 1 1 4 5 3 8 6 8 9 11 12 12 14
3 3 3 3 3 2 2 2 2 3 0 1 3 3 2 2 0 3 2 2 1 2 2 3 4 3 1 7 7 7 1 3 1 4 2 5 6 7 6 5 7 8 9 10 11
4 2 2 2 2 1 2 2 0 3 2 2 3 1 4 5 3 4 3 3 2 3 2 2 3 2 3 2 2 6 6 5 3 3 3 3 5 4 6 5 5 6 7 8 9
4 3 2 3 4 4 3 2 3 5 4 4 4 2 2 4 2 4 3 1 2 2 2 1 3 1 4 3 3 3 2 4 3 2 3 2 6 5 6 6 4 6 6 7 9
5 5 2 3 1 2 6 5 5 5 4 4 2 4 4 3 1 3 4 3 1 2 3 4 2 4 3 4 2 3 4 4 4 2 4 0 11 12 10 8 7 6 6 7 8
2 4 3 8 8 7 5 7 7 7 5 8 3 10 6 4 3 4 2 3 3 1 1 1 2 4 1 2 1 4 7 6 6 2 4 7 13 15 12 10 7 6 6 7 8
7 6 1 3 6 15 9 10 12 7 11 6 7 12 10 4 5 6 8 5 3 4 2 1 1 1 3 2 3 5 9 9 7 6 2 5 9 9 10 9 8 6 6 7 7
4 2 4 10 9 11 9 10 15 13 11 5 14 9 12 6 4 4 4 6 2 4 3 1 5 3 2 3 4 6 10 13 7 6 7 7 4 12 11 9 8 6 5 6 6
Wind_Direction
349 352 346 340 343 341 339 337 335 334 334 333 334 332 330 331 311 229 25 6 325 318 302 329 321 333 305 271 249 260 250 246 250 254 257 254 259 291 278 252 245 169 282 82 134
343 345 343 339 340 338 336 333 332 331 330 331 332 328 327 332 292 2 48 272 290 311 312 333 331 328 293 258 237 230 245 248 260 280 294 302 259 210 234 227 254 154 119 126 144
337 338 339 335 338 334 332 331 330 328 326 326 327 321 322 316 247 23 30 323 328 312 303 313 306 319 301 277 248 252 250 269 276 307 331 308 296 284 297 280 222 241 167 165 163
335 335 334 332 332 332 329 329 328 325 321 321 319 313 319 282 2 28 2 344 313 299 298 303 312 334 305 292 285 272 268 278 283 298 300 288 304 268 257 269 329 313 174 169 176
329 329 330 329 328 328 326 327 325 321 317 316 305 306 291 238 38 351 327 337 304 310 310 339 307 329 262 294 300 259 271 278 282 289 265 277 274 270 270 286 316 292 138 174 186
323 327 326 325 326 325 325 325 322 319 322 315 285 255 275 234 28 341 338 327 332 325 349 20 287 153 280 280 284 295 302 284 251 247 271 257 265 259 246 261 290 284 210 179 189
318 322 326 323 324 323 323 321 320 319 315 306 213 257 263 46 333 335 338 330 304 334 330 18 116 215 23 262 293 271 271 266 248 241 245 277 257 243 238 273 274 328 107 117 202
314 320 323 322 322 322 323 321 320 311 293 255 183 272 289 103 323 332 345 344 308 344 307 69 191 250 231 294 279 261 280 267 258 207 224 219 262 207 219 222 242 146 103 79 62
310 315 321 322 322 323 321 322 316 305 212 152 212 294 89 167 349 335 344 321 328 112 51 116 239 275 237 252 279 204 281 220 245 187 188 202 291 22 191 188 227 132 105 90 74
303 312 321 323 323 322 322 321 315 195 165 235 252 239 129 335 325 320 325 304 318 250 165 307 314 299 236 300 329 309 317 3 200 156 175 215 247 325 172 149 168 111 102 85 68
298 315 323 325 324 330 329 246 207 181 213 17 9 324 329 329 238 327 1 316 237 245 21 48 340 342 318 347 286 285 251 262 149 115 98 330 286 237 279 115 59 73 86 75 66
297 318 325 328 332 333 297 24 48 348 265 95 314 289 306 321 304 4 359 293 310 52 16 216 18 323 322 315 328 41 5 41 76 83 49 45 348 224 66 46 71 59 58 65 69
304 321 328 332 324 319 38 45 348 301 264 127 5 318 325 313 322 338 1 320 326 58 35 8 350 298 297 330 351 17 27 42 137 174 161 243 50 52 82 67 59 69 49 48 40
301 321 331 327 279 2 42 14 327 327 288 72 95 57 289 312 256 329 16 298 206 56 63 352 348 329 11 20 356 39 358 69 62 51 33 30 85 35 29 40 33 32 48 39 35
277 322 349 1 5 338 24 329 312 246 303 49 38 338 312 357 320 79 15 290 339 24 129 32 340 345 23 351 338 349 335 25 92 76 47 29 72 25 38 35 36 31 44 36 32
231 324 331 244 52 34 329 225 255 25 243 89 319 330 260 31 0 318 5 26 282 295 108 85 182 323 317 308 285 310 304 301 36 50 45 24 57 35 21 15 24 32 40 39 33
166 94 4 350 9 357 237 245 360 204 40 302 24 342 333 10 7 6 34 38 14 343 13 342 45 345 3 313 352 9 343 7 44 43 57 23 63 51 31 29 37 41 51 52 39
147 146 58 54 9 299 265 3 255 96 205 97 284 255 327 357 57 359 7 351 29 353 52 28 145 14 347 10 324 342 341 4 60 53 70 37 43 43 45 50 58 60 61 61 52
144 127 134 36 0 285 352 80 260 116 116 156 192 217 334 41 314 318 65 352 1 9 348 323 119 33 7 326 331 347 40 353 77 2 73 84 107 97 72 59 48 48 49 42 40
150 164 103 340 322 246 84 257 225 231 98 259 227 286 190 103 276 351 42 37 322 2 321 285 72 42 354 312 238 339 328 182 330 90 103 117 167 114 91 59 55 43 34 37 33
156 150 63 358 274 50 199 240 215 208 15 261 220 162 220 163 303 246 127 106 316 327 305 258 291 54 40 31 352 331 46 43 54 341 95 157 125 46 93 80 72 52 42 35 40
154 151 42 298 113 68 209 160 184 172 175 217 287 141 189 167 200 240 208 36 13 316 321 350 295 120 103 95 323 293 323 312 301 139 37 22 115 130 114 97 86 73 53 45 45
124 112 95 268 194 193 124 155 244 167 199 196 199 222 213 175 232 212 194 126 358 286 335 344 287 228 151 144 171 289 341 316 323 298 178 207 140 149 140 135 116 100 80 62 55
132 148 142 222 154 199 162 183 195 213 225 197 167 144 161 168 106 226 185 177 168 296 354 280 283 291 349 74 60 273 294 307 305 283 163 196 143 171 168 155 140 119 94 77 64
145 207 175 175 214 192 194 147 156 183 229 199 197 218 191 151 176 209 215 183 213 32 249 316 255 310 49 47 334 270 281 283 278 295 266 146 174 168 165 159 134 117 112 96 75
147 162 193 133 149 174 193 198 181 172 168 208 220 199 197 168 215 197 169 177 215 162 224 101 158 299 273 321 355 287 272 250 258 256 201 174 155 155 134 137 142 126 116 92 69
165 141 182 160 167 171 195 180 196 167 202 199 199 172 205 212 92 54 79 77 130 172 160 211 151 164 245 325 303 263 235 218 205 212 210 191 181 159 162 157 140 123 93 74 59